TimeAKDT,TemperatureF,Dew PointF,Humidity,Sea Level PressureIn,VisibilityMPH,Wind Direction,Wind SpeedMPH,Gust SpeedMPH,PrecipitationIn,Events,Conditions,WindDirDegrees,DateUTC
12:53 AM,52.0,41.0,66,29.88,10.0,North,5.8,-,N/A,,Mostly Cloudy,10,2013-09-15 08:53:00
1:53 AM,51.1,39.9,66,29.88,10.0,North,4.6,-,N/A,,Mostly Cloudy,360,2013-09-15 09:53:00
2:53 AM,50.0,39.9,68,29.88,10.0,NNE,6.9,-,N/A,,Mostly Cloudy,20,2013-09-15 10:53:00
3:53 AM,48.9,39.0,69,29.87,10.0,North,5.8,-,N/A,,Mostly Cloudy,10,2013-09-15 11:53:00
4:53 AM,48.0,39.0,71,29.87,10.0,NNE,4.6,-,N/A,,Scattered Clouds,30,2013-09-15 12:53:00
5:53 AM,46.0,39.0,76,29.87,10.0,NE,3.5,-,N/A,,Scattered Clouds,50,2013-09-15 13:53:00
6:53 AM,46.0,37.9,73,29.86,10.0,ENE,5.8,-,N/A,,Scattered Clouds,60,2013-09-15 14:53:00
7:53 AM,44.1,37.0,76,29.86,10.0,ENE,5.8,-,N/A,,Scattered Clouds,60,2013-09-15 15:53:00
8:53 AM,48.0,37.9,68,29.86,10.0,ENE,3.5,-,N/A,,Scattered Clouds,60,2013-09-15 16:53:00
9:53 AM,50.0,34.0,54,29.86,10.0,Calm,Calm,-,N/A,,Partly Cloudy,0,2013-09-15 17:53:00
10:53 AM,53.1,35.1,50,29.86,10.0,Calm,Calm,-,N/A,,Partly Cloudy,0,2013-09-15 18:53:00
11:53 AM,55.0,35.1,47,29.85,10.0,Calm,Calm,-,N/A,,Partly Cloudy,0,2013-09-15 19:53:00
12:53 PM,57.9,37.0,46,29.84,10.0,WNW,3.5,-,N/A,,Scattered Clouds,290,2013-09-15 20:53:00
1:53 PM,57.0,39.9,53,29.83,10.0,SSW,5.8,-,N/A,,Scattered Clouds,200,2013-09-15 21:53:00
2:53 PM,55.9,39.0,53,29.81,10.0,South,8.1,-,N/A,,Scattered Clouds,190,2013-09-15 22:53:00
3:53 PM,57.9,39.9,51,29.79,10.0,South,5.8,-,N/A,,Scattered Clouds,180,2013-09-15 23:53:00
4:53 PM,57.9,39.9,51,29.78,10.0,South,5.8,-,N/A,,Scattered Clouds,190,2013-09-16 00:53:00
5:53 PM,57.9,39.9,51,29.76,10.0,SSW,3.5,-,N/A,,Scattered Clouds,200,2013-09-16 01:53:00
6:53 PM,57.0,41.0,55,29.75,10.0,SSW,3.5,-,N/A,,Scattered Clouds,200,2013-09-16 02:53:00
7:53 PM,53.1,41.0,64,29.73,10.0,SW,5.8,-,N/A,,Scattered Clouds,230,2013-09-16 03:53:00
8:53 PM,50.0,39.9,68,29.73,10.0,Variable,4.6,-,N/A,,Scattered Clouds,0,2013-09-16 04:53:00
9:53 PM,48.9,39.0,69,29.72,10.0,East,4.6,-,N/A,,Partly Cloudy,90,2013-09-16 05:53:00
10:53 PM,50.0,41.0,71,29.71,10.0,SE,3.5,-,N/A,,Scattered Clouds,130,2013-09-16 06:53:00
11:53 PM,48.9,41.0,74,29.71,10.0,SSW,4.6,-,N/A,,Scattered Clouds,200,2013-09-16 07:53:00